Vorticity
6 7 8 8 7 7 8 7 7 7 6 6 5 4 4 3 4 5 5 6 7 8 9 8 10 10 10 10 10 9 8 8 7 7 7 7 6 6 6 5 6 6 7 7 8 9 10 12 13 11 10 10 9 10 10 9 9 9 8 7 9 10 11 11 8 5 8 9 7 9 11 10 8 7 6 5 6 7 7 6 3 2 4 4 4
6 6 7 8 8 7 7 7 8 8 7 7 6 6 6 5 5 5 6 6 7 8 10 9 10 11 11 10 9 8 8 7 7 7 7 6 6 6 6 5 5 5 5 6 7 8 10 11 13 12 11 10 10 11 11 11 11 11 10 8 7 8 9 11 10 8 8 11 10 9 10 11 11 12 11 10 9 10 9 7 5 5 4 4 5
7 8 7 7 8 8 7 6 7 7 7 7 7 7 7 7 6 6 5 5 5 6 8 9 10 11 11 10 8 7 6 6 6 6 6 7 6 6 6 5 6 5 5 5 5 6 8 9 12 12 11 11 12 12 12 12 13 13 12 10 9 9 8 8 9 9 9 11 12 10 10 12 13 14 14 13 13 12 9 6 5 5 5 5 6
9 7 7 7 8 9 9 8 7 7 6 5 5 6 6 5 5 5 4 4 4 4 5 7 8 9 11 10 8 7 6 6 7 7 7 7 6 7 7 6 6 6 5 5 4 5 6 7 9 9 10 11 11 12 12 12 12 13 13 14 13 12 9 7 8 9 9 10 12 12 10 11 14 15 13 11 12 10 5 4 3 4 6 7 7
12 10 7 6 7 7 8 8 8 7 6 6 5 4 4 5 4 4 3 4 4 3 4 5 6 7 9 10 8 6 6 6 6 7 7 8 8 8 7 7 7 7 6 5 4 4 5 5 6 7 8 9 10 9 10 10 11 13 14 14 14 15 14 12 12 12 12 12 14 15 12 10 12 13 9 6 5 4 2 2 3 6 7 6 6
7 9 9 8 7 6 6 6 7 8 7 7 7 5 4 4 5 5 5 4 4 3 3 3 4 6 7 8 7 6 6 6 7 7 7 8 9 9 9 9 8 8 7 7 5 4 3 3 4 5 6 7 7 7 7 8 9 9 11 11 12 14 15 15 15 13 12 13 13 13 11 9 8 8 6 3 1 1 2 3 5 8 9 6 5
5 5 7 8 8 7 7 6 4 5 7 6 7 7 7 6 5 6 6 6 5 4 4 3 3 5 5 5 5 5 4 5 6 7 7 8 9 10 10 10 10 9 9 8 7 6 4 3 2 3 5 5 5 5 5 5 5 6 8 8 8 9 11 11 11 10 10 10 9 8 8 6 4 3 2 2 2 2 4 6 6 5 7 7 6
8 7 5 5 7 6 6 7 6 4 5 6 7 7 7 8 7 6 6 6 6 6 5 4 3 4 5 5 4 4 3 4 6 7 7 7 8 10 10 10 11 11 10 10 9 8 7 5 3 2 2 3 4 5 4 4 4 4 5 5 5 6 7 7 6 6 6 6 5 4 3 2 1 -0 -2 -0 2 4 7 9 7 4 4 5 5
10 12 9 4 4 5 4 5 6 6 5 6 6 7 7 7 7 8 7 6 5 6 6 6 5 5 5 5 5 4 2 2 4 5 6 6 6 8 9 10 11 11 12 11 11 10 9 8 7 5 3 2 2 2 3 4 3 3 3 3 2 2 3 3 3 3 3 2 2 2 0 -1 -1 -1 -0 2 6 8 8 9 7 4 4 3 2
7 14 18 12 9 12 14 10 4 3 5 5 3 3 5 6 6 7 8 8 7 7 6 6 6 7 7 7 6 6 4 3 2 3 4 5 5 5 6 7 8 9 10 11 11 12 11 10 10 10 8 6 4 2 2 2 2 3 3 3 2 1 1 0 -0 0 0 -1 -1 -1 -1 -1 -0 2 4 6 8 9 7 6 5 4 5 3 0
7 11 18 16 12 15 21 23 15 6 5 5 3 2 2 4 7 7 6 7 7 7 8 8 7 7 7 7 7 6 6 5 4 4 4 4 4 4 4 4 6 7 7 8 9 9 11 11 10 10 10 9 8 7 6 4 3 3 2 2 3 3 2 2 2 1 1 1 1 1 2 3 4 6 7 7 9 9 6 5 5 5 5 4 1
6 8 10 10 11 11 13 21 24 18 13 8 5 5 5 5 6 6 5 6 5 5 7 7 7 7 7 7 7 7 6 6 5 5 5 6 6 5 5 4 4 5 5 6 7 7 8 8 9 9 9 8 8 9 9 8 7 7 5 5 4 3 3 3 3 4 4 4 5 5 5 6 6 6 7 9 10 9 6 4 4 5 4 3 3
1 5 6 3 5 7 7 14 23 29 31 24 13 9 8 7 5 4 4 4 4 4 4 5 6 6 6 7 7 7 6 5 5 5 4 6 7 7 6 5 4 4 4 5 5 6 6 6 7 7 7 8 8 8 8 8 8 9 9 9 8 7 7 6 5 5 6 6 6 6 6 7 7 7 7 10 9 7 5 4 3 4 4 2 3
3 5 12 12 9 9 9 11 15 22 29 30 25 17 11 9 10 9 6 5 5 5 4 2 3 4 5 7 8 8 8 6 6 6 5 4 6 6 7 6 5 4 4 4 4 4 5 5 5 6 7 7 8 8 8 8 8 9 10 10 10 10 10 10 9 8 8 8 7 6 6 7 8 8 7 8 8 7 5 4 4 3 3 3 4
6 2 7 10 9 13 18 15 11 12 18 26 32 27 16 12 14 13 10 9 9 10 11 9 7 6 5 5 5 6 8 7 6 7 6 5 5 6 7 6 6 5 4 3 3 3 4 4 4 5 6 6 6 6 6 6 7 9 10 9 9 9 10 9 8 8 9 9 9 8 7 7 8 7 6 6 6 6 5 5 4 3 3 5 5
9 4 2 1 -1 4 9 7 3 1 5 17 28 27 20 16 14 12 11 12 12 14 17 16 14 11 8 8 10 9 9 10 10 8 7 7 6 6 7 7 7 7 6 5 5 4 4 4 4 4 5 5 5 5 5 6 7 8 9 9 8 9 9 7 6 8 8 9 9 10 8 8 7 6 6 5 4 5 5 5 5 4 5 5 4
8 8 7 6 5 4 2 4 6 1 -5 1 10 13 16 19 20 18 16 14 16 17 16 14 13 12 8 8 14 15 13 16 16 7 2 7 9 7 7 8 8 8 8 7 7 6 5 5 5 5 5 5 5 5 5 6 7 7 8 8 8 10 9 5 3 6 8 9 10 9 8 8 7 5 5 5 4 5 5 5 5 5 6 7 6
7 9 7 6 8 8 3 4 11 11 5 4 4 3 6 11 18 25 24 18 17 16 13 10 11 16 15 10 9 8 6 10 12 1 -4 5 10 8 8 8 7 8 9 9 8 8 7 6 6 6 6 6 6 6 6 7 8 8 8 8 10 12 9 4 3 6 7 9 10 10 9 8 7 6 6 5 4 5 5 5 5 4 5 6 6
5 8 10 8 6 7 6 2 4 8 9 9 7 5 5 4 6 14 20 20 18 17 15 10 8 13 19 16 12 9 6 5 4 -0 -3 2 5 6 8 8 8 9 9 9 9 8 7 7 6 6 6 6 6 6 6 6 7 7 7 8 9 11 8 6 7 8 7 7 9 10 9 9 8 8 7 5 4 4 5 5 5 5 6 6 6
6 7 9 10 8 8 9 8 6 8 10 10 7 6 7 8 5 4 6 10 13 16 20 21 19 18 19 19 16 14 12 9 9 10 7 4 3 5 6 5 7 8 8 8 9 8 7 6 6 6 6 5 5 4 4 5 5 6 7 7 7 8 7 7 8 8 7 8 8 8 10 10 9 9 8 7 6 4 5 5 4 4 4 5 5
8 8 8 10 10 8 8 8 7 8 10 11 10 5 2 4 5 4 3 4 4 6 9 13 15 15 16 16 13 11 11 11 13 15 13 9 6 6 6 5 6 7 6 6 6 6 8 7 6 6 6 6 6 5 4 4 4 4 6 6 6 6 6 7 6 6 7 8 7 7 8 8 9 10 10 11 10 8 8 9 8 7 7 8 9
5 5 4 5 6 6 6 6 6 7 8 9 11 11 7 2 1 2 4 4 3 3 4 5 6 7 8 10 10 11 14 14 13 14 13 12 10 9 9 9 10 9 7 5 3 2 5 8 9 9 8 8 7 7 6 5 4 4 4 4 4 5 5 5 5 4 5 6 7 7 7 6 6 7 7 9 10 9 10 10 11 11 11 12 13
5 4 4 3 3 3 4 4 5 6 6 7 8 11 11 8 5 5 6 6 6 5 5 6 6 4 4 4 4 7 11 12 13 14 14 15 15 14 13 13 13 11 8 6 5 4 3 5 8 10 10 9 8 7 8 7 7 6 6 5 5 5 4 5 5 5 5 5 5 5 5 4 4 4 4 5 5 5 6 7 7 7 8 8 9
4 5 5 5 6 6 5 6 6 6 6 6 7 8 10 10 9 7 7 7 7 7 5 4 2 2 2 2 2 2 3 3 5 7 9 11 13 13 13 14 16 17 14 11 9 8 7 7 8 10 11 10 8 6 6 5 5 6 7 7 7 7 6 6 6 8 9 9 8 7 7 7 7 7 7 6 5 5 5 4 4 4 4 4 5
-1 0 2 3 5 6 7 7 7 7 7 7 7 7 8 9 10 10 9 7 7 8 8 7 6 6 5 5 5 5 4 3 2 2 3 5 7 9 10 11 13 18 21 20 16 13 11 9 8 9 10 11 11 10 8 6 5 5 6 7 7 7 8 7 8 9 10 10 8 6 6 7 6 6 7 8 9 9 9 8 7 6 4 4 4
3 2 1 1 2 4 6 8 8 7 8 8 9 9 8 8 8 9 9 9 9 9 9 10 10 9 9 8 7 6 6 5 4 3 2 2 3 4 6 8 9 11 15 19 20 19 16 13 10 9 9 10 11 12 11 10 9 8 7 7 7 7 7 7 8 9 9 8 7 7 8 8 7 7 7 8 9 9 10 10 10 9 8 7 7
11 11 9 8 6 4 4 5 6 6 7 7 7 8 9 8 8 7 7 8 8 8 8 8 9 9 9 10 9 8 7 7 7 6 5 3 2 2 2 3 4 5 6 8 11 12 13 14 15 15 16 16 17 17 16 13 10 8 7 6 6 6 6 7 8 9 9 9 10 10 12 12 12 11 10 10 9 10 11 11 12 13 13 12 11
9 11 12 12 12 10 7 5 4 5 5 6 5 5 4 4 4 4 4 4 4 4 4 4 5 5 6 7 8 8 8 8 8 8 8 7 6 4 3 3 2 2 2 2 3 3 4 5 6 8 11 13 17 23 26 23 17 13 11 9 8 8 8 8 8 7 8 10 10 9 11 13 14 13 13 13 12 12 13 13 13 13 15 15 16
9 8 9 9 9 9 8 7 6 5 4 4 3 2 1 0 0 1 2 2 3 3 3 3 3 3 3 4 5 6 6 6 6 7 8 8 8 8 7 6 5 4 3 2 1 1 0 0 0 0 1 2 3 9 16 20 20 19 18 15 13 12 10 10 9 8 8 9 8 7 6 7 8 8 8 8 8 8 8 8 8 8 10 13 15
9 8 8 8 8 8 7 7 6 5 4 3 3 3 2 1 1 2 3 3 3 3 3 3 2 2 2 2 3 4 4 4 4 4 4 6 7 8 8 8 8 7 7 6 4 3 2 2 1 0 -0 -0 -1 -1 2 5 9 11 13 14 14 14 14 13 11 9 8 8 7 6 5 4 3 3 2 2 3 4 5 5 5 4 5 7 10
7 7 7 7 7 8 8 8 7 6 5 5 5 5 5 5 4 4 4 3 3 2 2 2 2 2 2 2 2 3 4 4 4 5 4 4 4 4 5 6 7 7 8 8 7 6 6 5 4 3 2 1 1 0 -0 -0 1 1 3 5 7 9 13 13 12 11 9 8 7 6 5 5 3 0 -1 -0 0 3 5 6 6 5 5 7 8
7 7 7 7 7 7 7 7 7 7 6 6 5 4 5 5 5 6 6 6 5 4 3 3 3 4 5 5 5 5 5 5 5 5 5 5 5 4 4 4 4 5 6 6 7 6 6 6 6 6 6 5 4 3 2 1 0 -0 -0 0 0 1 3 5 7 8 8 7 6 5 3 2 -0 -2 -2 -1 1 3 5 6 7 6 6 6 7
7 7 7 7 7 7 7 7 7 7 7 7 7 6 6 5 6 6 7 7 8 7 6 5 5 5 5 6 6 6 6 7 7 6 6 6 6 6 6 5 5 4 4 5 6 6 6 6 6 6 6 6 7 6 6 5 4 2 1 1 0 -0 -0 -0 0 1 2 2 2 1 1 -0 -2 -2 -1 -1 0 2 4 6 7 7 6 5 5
9 9 8 8 7 7 7 7 8 8 8 8 8 8 8 8 7 7 7 7 7 7 7 7 7 6 6 6 6 7 7 7 7 8 8 7 7 7 7 7 7 7 6 5 5 5 5 6 6 6 6 6 6 6 6 7 7 6 5 4 3 2 1 -0 -1 -1 -0 -0 -0 0 0 0 -0 0 0 0 1 1 2 4 6 7 8 7 5
14 13 13 12 11 11 10 10 10 10 10 10 10 10 10 10 10 9 9 8 8 8 8 8 8 8 8 8 8 8 8 8 8 7 8 8 8 8 7 7 7 7 7 7 7 6 6 5 5 5 5 6 6 6 6 6 6 7 7 7 7 6 5 3 2 1 0 -0 -0 -0 0 0 0 0 0 1 1 0 1 3 4 5 7 7 6
13 13 13 14 14 14 13 12 12 11 11 11 11 12 12 12 12 12 11 10 10 9 9 9 9 9 9 9 9 9 9 9 9 8 8 8 7 8 8 8 8 8 8 8 8 8 8 7 7 7 6 6 6 6 6 7 6 6 6 6 6 7 7 7 7 6 4 3 2 2 1 0 -0 0 0 1 1 1 1 2 3 4 5 6 6
8 9 10 10 11 12 12 12 12 12 11 11 11 11 11 11 11 12 12 12 11 11 10 10 10 10 10 10 9 9 9 8 8 9 9 8 8 8 8 8 8 8 8 8 8 8 9 8 8 8 7 7 7 7 7 7 7 7 7 7 6 6 6 6 7 7 7 7 7 6 6 5 3 3 2 2 2 2 3 4 4 4 4 4 6
7 7 8 8 8 9 9 9 9 9 10 10 10 9 9 10 10 10 10 11 11 11 11 10 10 9 10 10 9 9 9 8 8 8 8 8 8 8 8 8 8 7 7 7 7 7 8 8 8 8 8 8 8 7 7 7 7 7 8 8 8 8 7 6 6 6 6 7 7 7 7 7 7 7 6 5 5 4 4 5 6 5 5 4 5
14 13 12 12 13 13 12 12 11 11 10 10 10 9 9 9 8 8 9 9 9 9 9 9 9 8 8 9 9 8 8 8 8 8 8 8 8 7 7 8 8 7 8 8 7 7 7 7 7 8 8 8 8 8 8 8 8 8 8 8 8 9 9 8 8 7 7 7 7 7 7 7 7 8 8 8 8 7 6 6 7 7 7 5 4
17 17 17 16 16 16 17 17 17 16 16 15 15 15 15 15 14 14 13 12 11 11 10 10 9 9 9 9 9 9 9 9 9 9 9 9 10 9 9 9 9 9 9 8 8 8 8 7 7 7 7 8 8 8 8 8 7 7 8 8 8 8 8 9 9 9 8 8 7 7 8 7 7 7 7 7 7 7 7 7 7 7 8 8 6
9 10 11 12 11 11 12 13 14 15 16 17 18 18 18 18 19 19 19 18 18 17 16 15 15 14 14 13 12 12 12 12 11 11 11 11 11 11 11 11 11 10 10 10 9 9 8 8 8 7 7 8 8 8 8 8 8 8 8 8 8 8 8 8 8 8 9 9 9 8 8 8 8 8 8 8 8 7 6 6 6 6 7 7 7
6 5 5 4 5 5 5 5 7 8 9 10 12 12 13 14 14 15 16 17 17 17 17 17 17 17 17 16 16 16 15 15 14 14 14 13 13 13 13 13 13 13 12 12 11 11 10 9 9 9 8 8 8 8 8 8 8 8 8 8 8 8 8 8 8 8 7 8 8 8 8 8 8 8 7 8 8 8 7 7 7 7 7 7 6
10 9 8 6 6 5 4 3 3 4 4 5 5 6 7 8 9 10 10 11 12 12 13 13 14 14 14 15 15 15 15 15 15 15 15 15 15 15 15 14 14 15 15 14 14 13 12 11 11 11 11 11 10 10 9 9 8 8 8 8 8 9 9 8 8 7 7 8 8 8 8 8 8 8 8 7 8 8 8 7 7 7 7 7 7
10 11 10 10 10 9 9 8 7 6 5 5 4 4 4 4 5 6 6 6 7 7 7 8 9 9 10 10 11 11 12 12 12 13 13 13 13 13 13 14 14 15 16 17 17 18 18 17 15 14 12 12 12 12 12 12 11 10 8 7 7 7 8 10 10 9 8 8 7 7 8 8 8 8 8 8 8 8 7 7 7 7 7 7 7
7 7 7 7 7 8 8 9 9 9 8 8 6 5 4 4 5 7 7 7 6 6 6 6 7 7 7 8 9 9 10 10 10 11 11 11 12 12 12 12 12 12 12 12 12 13 15 16 17 17 16 15 14 13 13 13 13 14 13 12 9 7 6 7 8 9 9 9 9 8 8 7 7 8 8 8 8 8 8 7 7 7 7 7 7
8 9 9 9 10 10 10 11 11 11 11 11 10 10 9 9 9 10 10 11 10 9 8 8 7 7 7 7 7 7 7 7 7 8 8 8 8 8 7 7 6 5 4 4 5 6 8 9 11 13 15 15 16 15 15 14 13 13 14 15 15 13 11 9 7 7 7 8 8 8 8 8 8 8 7 7 7 8 8 8 8 8 7 7 7
10 11 11 12 13 14 14 13 12 12 12 11 11 11 11 10 9 9 9 10 11 11 12 12 12 11 11 10 10 10 10 9 9 9 9 8 8 7 7 7 7 6 7 8 8 9 10 10 10 10 11 12 13 14 15 15 15 15 14 13 14 14 15 15 14 11 9 8 8 7 7 8 8 8 8 9 8 8 7 7 8 8 8 7 7
11 11 10 9 10 10 11 11 10 10 11 11 11 11 11 10 9 9 8 7 7 8 9 11 12 13 13 13 12 11 10 9 9 8 8 8 9 10 10 11 11 11 12 12 12 13 13 13 14 14 14 14 14 15 15 16 17 17 18 17 16 15 15 15 15 15 14 13 12 10 9 9 8 7 7 7 7 8 8 8 8 8 8 8 8
18 18 17 16 15 14 13 13 13 13 13 13 13 13 13 13 13 13 13 12 11 10 9 9 10 11 11 11 11 11 10 10 10 10 10 11 12 12 13 14 15 15 16 16 16 17 17 17 17 17 17 17 17 17 18 18 18 19 20 21 22 22 21 20 19 19 18 17 15 14 12 12 12 11 10 9 8 7 7 7 7 8 8 8 8
18 18 18 19 18 18 17 16 15 15 15 14 14 14 13 13 13 14 14 14 14 14 13 13 12 12 12 12 12 13 13 12 13 13 14 14 15 16 17 18 18 18 17 16 15 14 13 13 12 11 11 11 11 11 11 12 12 13 14 14 16 18 20 22 23 24 25 25 24 22 19 17 15 13 13 13 12 11 10 9 8 7 7 7 8
17 18 19 20 20 21 21 21 20 20 19 19 19 19 18 17 17 16 15 15 14 14 14 14 14 14 14 14 14 14 14 15 16 16 17 18 19 18 17 15 14 12 11 10 9 8 8 8 8 8 8 9 9 10 10 11 11 10 10 10 10 10 11 12 14 16 18 21 24 27 28 28 27 24 21 19 17 15 14 13 11 10 8 7 7
Height
5944 5945 5946 5947 5948 5949 5950 5951 5953 5954 5955 5957 5958 5959 5960 5961 5962 5963 5964 5965 5965 5966 5967 5968 5968 5968 5968 5968 5969 5969 5969 5969 5969 5970 5970 5970 5971 5971 5971 5971 5972 5972 5972 5973 5973 5973 5974 5974 5975 5975 5975 5976 5976 5977 5977 5977 5977 5977 5977 5977 5977 5977 5977 5977 5977 5977 5977 5977 5977 5977 5977 5977 5977 5976 5976 5976 5975 5975 5974 5974 5973 5973 5972 5972 5971
5943 5944 5945 5946 5947 5948 5950 5951 5952 5954 5955 5956 5957 5958 5959 5960 5961 5961 5962 5963 5963 5964 5966 5967 5967 5968 5968 5968 5968 5968 5968 5968 5968 5969 5969 5969 5969 5970 5970 5970 5971 5971 5971 5972 5972 5972 5973 5973 5974 5974 5975 5975 5975 5976 5976 5976 5976 5976 5976 5976 5976 5976 5976 5977 5977 5976 5976 5976 5976 5976 5976 5977 5976 5976 5976 5975 5975 5975 5974 5974 5973 5973 5972 5972 5971
5942 5943 5944 5945 5947 5948 5949 5950 5951 5952 5953 5954 5955 5956 5957 5958 5959 5959 5960 5961 5962 5963 5964 5965 5966 5966 5967 5967 5967 5967 5967 5967 5967 5967 5968 5968 5968 5968 5969 5969 5969 5970 5970 5971 5971 5971 5972 5972 5972 5973 5973 5974 5974 5975 5975 5975 5975 5975 5975 5975 5975 5976 5976 5976 5976 5975 5975 5975 5975 5975 5975 5975 5975 5975 5975 5975 5974 5974 5974 5973 5973 5973 5972 5971 5970
5941 5942 5943 5944 5946 5947 5948 5948 5949 5949 5950 5951 5952 5953 5955 5956 5957 5958 5959 5960 5960 5961 5962 5963 5964 5964 5965 5965 5966 5966 5966 5966 5966 5966 5967 5967 5967 5967 5967 5968 5968 5968 5969 5970 5970 5970 5971 5971 5971 5972 5972 5972 5973 5973 5974 5974 5974 5975 5975 5975 5975 5975 5975 5975 5975 5974 5974 5974 5974 5974 5974 5974 5973 5973 5973 5974 5973 5973 5973 5973 5973 5972 5971 5971 5970
5938 5939 5940 5942 5944 5945 5946 5946 5947 5947 5948 5948 5949 5950 5952 5954 5956 5957 5958 5959 5959 5960 5961 5962 5962 5963 5963 5964 5964 5965 5965 5966 5965 5965 5965 5966 5966 5966 5966 5966 5967 5967 5968 5969 5969 5970 5970 5970 5971 5971 5971 5971 5972 5972 5973 5973 5973 5974 5974 5974 5974 5974 5974 5974 5974 5973 5973 5973 5972 5972 5972 5972 5972 5972 5972 5973 5973 5973 5973 5972 5972 5971 5971 5970 5969
5935 5935 5937 5939 5941 5942 5943 5943 5944 5945 5946 5947 5947 5948 5949 5951 5953 5955 5956 5958 5959 5959 5960 5960 5961 5961 5961 5962 5962 5963 5964 5964 5964 5964 5964 5964 5965 5965 5965 5966 5966 5966 5967 5968 5968 5969 5969 5970 5970 5970 5970 5970 5971 5971 5971 5972 5972 5972 5972 5973 5973 5973 5973 5973 5973 5973 5972 5972 5972 5971 5971 5971 5971 5971 5972 5972 5972 5972 5971 5971 5971 5971 5970 5969 5968
5933 5933 5934 5936 5938 5939 5939 5940 5941 5942 5943 5944 5945 5946 5947 5948 5950 5951 5953 5955 5957 5958 5959 5959 5959 5959 5960 5960 5961 5961 5962 5962 5963 5963 5963 5963 5964 5964 5964 5965 5965 5965 5966 5967 5967 5968 5968 5968 5969 5969 5969 5969 5970 5970 5970 5970 5971 5971 5971 5971 5972 5972 5972 5972 5972 5972 5972 5972 5971 5971 5971 5971 5971 5971 5971 5971 5971 5971 5970 5970 5969 5969 5969 5969 5968
5930 5930 5931 5933 5935 5936 5936 5937 5938 5939 5941 5942 5943 5945 5946 5947 5948 5949 5951 5952 5954 5955 5956 5957 5958 5958 5958 5959 5959 5959 5960 5960 5961 5961 5961 5962 5962 5963 5963 5964 5964 5964 5964 5965 5966 5966 5966 5967 5967 5968 5968 5968 5969 5969 5969 5969 5969 5970 5970 5970 5970 5970 5971 5971 5971 5971 5971 5971 5971 5971 5970 5970 5970 5970 5970 5970 5970 5970 5969 5969 5968 5967 5967 5967 5966
5926 5927 5929 5931 5933 5934 5933 5934 5936 5937 5939 5941 5943 5944 5945 5946 5946 5947 5948 5950 5951 5952 5953 5955 5956 5957 5957 5957 5957 5958 5958 5958 5958 5959 5959 5960 5960 5961 5962 5962 5962 5962 5963 5963 5964 5964 5965 5965 5966 5966 5967 5967 5968 5968 5968 5969 5969 5969 5969 5969 5969 5969 5969 5969 5969 5969 5969 5969 5969 5969 5969 5969 5969 5969 5969 5969 5968 5968 5968 5967 5967 5966 5965 5964 5963
5922 5924 5927 5929 5931 5931 5931 5932 5934 5935 5937 5938 5939 5942 5944 5944 5944 5945 5945 5947 5948 5949 5951 5952 5953 5955 5955 5956 5956 5956 5956 5956 5956 5956 5957 5958 5958 5959 5959 5960 5960 5960 5961 5961 5962 5962 5963 5964 5964 5965 5965 5966 5966 5966 5967 5967 5967 5967 5968 5968 5968 5968 5968 5968 5968 5968 5968 5968 5968 5968 5968 5967 5967 5967 5967 5967 5967 5966 5966 5965 5965 5964 5964 5963 5962
5919 5921 5924 5926 5927 5927 5927 5929 5931 5932 5934 5934 5934 5936 5940 5941 5941 5941 5942 5943 5945 5947 5948 5950 5951 5952 5953 5954 5954 5954 5954 5953 5953 5954 5955 5955 5956 5956 5957 5958 5958 5959 5959 5959 5959 5960 5960 5961 5961 5962 5963 5963 5963 5964 5964 5964 5965 5965 5965 5965 5966 5966 5966 5966 5966 5966 5966 5966 5966 5966 5966 5965 5965 5965 5965 5965 5965 5965 5964 5964 5963 5963 5962 5962 5961
5918 5920 5922 5923 5924 5924 5924 5925 5926 5928 5930 5930 5930 5931 5935 5937 5937 5938 5939 5940 5942 5944 5946 5947 5948 5948 5949 5951 5952 5953 5952 5951 5951 5952 5952 5953 5954 5954 5955 5956 5957 5957 5958 5958 5958 5958 5958 5958 5958 5959 5959 5960 5960 5961 5961 5961 5961 5962 5962 5962 5963 5963 5963 5963 5963 5963 5964 5964 5964 5963 5963 5963 5963 5963 5963 5963 5963 5963 5962 5962 5962 5961 5961 5960 5960
5918 5919 5919 5920 5921 5922 5922 5922 5922 5923 5924 5926 5926 5928 5931 5933 5934 5935 5935 5937 5938 5940 5942 5943 5944 5945 5945 5947 5949 5950 5951 5949 5948 5949 5950 5950 5951 5953 5953 5954 5955 5956 5956 5956 5956 5956 5957 5957 5957 5957 5957 5958 5958 5958 5959 5959 5959 5959 5959 5959 5960 5960 5960 5960 5960 5960 5960 5961 5961 5961 5960 5961 5961 5960 5961 5961 5962 5961 5961 5960 5960 5960 5959 5959 5958
5915 5915 5916 5917 5918 5918 5918 5918 5919 5919 5920 5921 5923 5925 5927 5929 5930 5931 5932 5933 5935 5936 5938 5939 5940 5941 5942 5944 5945 5947 5948 5948 5947 5946 5946 5947 5948 5950 5951 5952 5953 5954 5954 5955 5955 5955 5955 5956 5956 5956 5956 5956 5957 5957 5957 5957 5957 5958 5958 5958 5958 5958 5958 5958 5958 5958 5957 5958 5958 5958 5958 5958 5959 5958 5958 5959 5959 5959 5959 5958 5958 5957 5957 5957 5957
5911 5911 5913 5914 5914 5914 5914 5915 5915 5916 5917 5919 5920 5922 5923 5925 5926 5927 5929 5930 5932 5933 5935 5936 5937 5938 5939 5940 5942 5944 5945 5945 5945 5944 5944 5944 5946 5948 5949 5950 5951 5951 5952 5952 5953 5953 5953 5954 5955 5955 5955 5955 5955 5955 5955 5955 5956 5956 5957 5957 5957 5957 5957 5957 5956 5956 5956 5956 5957 5957 5956 5956 5957 5957 5956 5956 5956 5956 5956 5956 5955 5954 5954 5955 5955
5908 5909 5910 5911 5911 5912 5913 5913 5913 5914 5916 5918 5918 5919 5920 5921 5922 5924 5925 5927 5929 5930 5931 5932 5933 5934 5935 5936 5939 5940 5940 5941 5942 5942 5942 5942 5943 5945 5946 5947 5948 5949 5949 5949 5950 5951 5951 5952 5952 5952 5953 5953 5953 5953 5953 5953 5954 5955 5955 5955 5955 5955 5955 5954 5953 5953 5954 5954 5955 5955 5955 5955 5954 5954 5954 5953 5953 5953 5953 5954 5952 5951 5952 5953 5953
5906 5907 5908 5908 5909 5911 5911 5910 5911 5912 5915 5916 5917 5917 5917 5918 5919 5920 5921 5923 5925 5926 5928 5928 5929 5929 5930 5932 5934 5935 5934 5935 5938 5939 5939 5940 5941 5942 5944 5945 5946 5946 5946 5946 5947 5947 5948 5948 5949 5949 5950 5950 5949 5949 5950 5951 5952 5952 5952 5952 5952 5952 5952 5951 5950 5950 5951 5951 5952 5952 5952 5952 5952 5951 5951 5950 5949 5949 5950 5951 5949 5948 5949 5951 5951
5903 5905 5906 5906 5907 5908 5908 5908 5909 5911 5913 5914 5914 5915 5915 5915 5916 5917 5918 5920 5922 5923 5924 5925 5926 5926 5927 5928 5930 5931 5930 5932 5935 5935 5935 5937 5938 5939 5940 5942 5943 5943 5944 5944 5944 5944 5944 5944 5945 5946 5947 5947 5946 5946 5947 5948 5949 5950 5949 5950 5950 5950 5949 5947 5947 5947 5948 5949 5949 5949 5949 5949 5948 5948 5948 5947 5946 5945 5946 5947 5946 5945 5947 5948 5948
5898 5900 5902 5903 5903 5904 5905 5906 5907 5908 5910 5911 5911 5912 5912 5913 5914 5915 5916 5917 5919 5920 5921 5922 5924 5924 5924 5925 5926 5927 5928 5929 5930 5930 5931 5933 5935 5936 5937 5938 5939 5940 5941 5941 5941 5941 5941 5941 5942 5942 5943 5944 5944 5943 5943 5944 5945 5946 5946 5946 5947 5947 5945 5945 5945 5945 5945 5945 5945 5945 5945 5945 5945 5944 5944 5943 5942 5941 5942 5944 5943 5943 5944 5945 5944
5894 5896 5897 5899 5899 5900 5901 5902 5904 5905 5907 5907 5908 5908 5909 5911 5912 5913 5914 5915 5916 5917 5918 5919 5920 5921 5921 5921 5922 5923 5924 5925 5925 5926 5928 5929 5930 5931 5932 5933 5934 5936 5937 5937 5937 5938 5938 5938 5938 5939 5940 5940 5940 5940 5939 5940 5941 5942 5942 5943 5943 5943 5942 5942 5942 5942 5941 5942 5941 5942 5942 5942 5941 5941 5940 5939 5938 5937 5938 5939 5940 5940 5940 5941 5941
5890 5891 5892 5894 5895 5896 5897 5898 5899 5901 5903 5904 5905 5906 5906 5907 5909 5911 5911 5912 5913 5914 5914 5915 5916 5916 5916 5916 5916 5917 5919 5920 5921 5922 5923 5925 5926 5926 5927 5928 5930 5931 5932 5933 5934 5934 5934 5934 5934 5935 5935 5936 5936 5936 5936 5936 5936 5937 5937 5938 5939 5939 5939 5939 5938 5938 5938 5938 5938 5938 5938 5938 5937 5937 5937 5936 5935 5934 5934 5935 5936 5936 5936 5937 5937
5886 5887 5888 5890 5891 5892 5893 5893 5894 5896 5898 5900 5901 5903 5904 5904 5905 5907 5908 5908 5909 5910 5910 5910 5911 5912 5912 5912 5912 5913 5915 5916 5918 5918 5919 5920 5922 5922 5923 5924 5925 5926 5927 5928 5929 5929 5929 5929 5930 5930 5931 5932 5932 5932 5932 5932 5932 5932 5932 5933 5934 5934 5935 5935 5935 5934 5934 5935 5935 5935 5935 5934 5934 5933 5933 5932 5932 5931 5931 5931 5932 5932 5932 5932 5932
5883 5884 5885 5886 5887 5888 5889 5890 5891 5892 5893 5895 5897 5898 5899 5900 5901 5902 5903 5903 5904 5905 5906 5907 5907 5908 5909 5909 5909 5910 5912 5913 5914 5915 5916 5917 5917 5917 5918 5919 5920 5921 5922 5923 5923 5924 5924 5924 5925 5925 5926 5927 5927 5928 5928 5928 5928 5928 5928 5928 5928 5929 5929 5930 5930 5930 5931 5931 5931 5931 5931 5930 5929 5929 5929 5928 5928 5927 5927 5927 5927 5926 5926 5927 5927
5879 5880 5881 5882 5883 5884 5885 5886 5887 5888 5889 5890 5892 5893 5895 5896 5897 5897 5898 5899 5899 5900 5901 5902 5903 5904 5905 5905 5906 5907 5908 5909 5910 5911 5912 5912 5913 5913 5914 5915 5916 5916 5917 5917 5918 5918 5919 5919 5920 5920 5921 5921 5922 5922 5923 5923 5923 5922 5922 5923 5923 5924 5925 5925 5925 5926 5926 5927 5927 5927 5927 5926 5925 5925 5925 5924 5924 5924 5923 5923 5922 5921 5921 5921 5922
5874 5876 5877 5878 5879 5880 5881 5882 5883 5884 5885 5885 5887 5888 5890 5891 5892 5893 5893 5894 5894 5895 5896 5897 5898 5898 5899 5900 5901 5902 5904 5905 5906 5906 5907 5908 5909 5909 5910 5911 5912 5912 5913 5913 5913 5914 5914 5915 5915 5915 5916 5916 5916 5917 5917 5917 5917 5917 5917 5917 5918 5919 5920 5920 5920 5921 5921 5922 5922 5922 5922 5922 5921 5920 5920 5920 5920 5919 5918 5918 5917 5916 5916 5916 5917
5869 5870 5872 5873 5874 5875 5876 5877 5878 5879 5880 5881 5882 5883 5884 5886 5887 5888 5888 5889 5889 5890 5891 5891 5892 5892 5893 5894 5895 5897 5898 5899 5900 5901 5902 5903 5904 5905 5905 5906 5907 5908 5909 5909 5909 5910 5910 5910 5910 5910 5911 5911 5911 5912 5912 5912 5912 5912 5912 5912 5913 5914 5914 5914 5915 5915 5916 5916 5916 5917 5917 5917 5916 5916 5915 5915 5915 5914 5913 5912 5912 5912 5911 5910 5912
5862 5864 5865 5867 5869 5870 5871 5872 5873 5874 5875 5876 5877 5878 5879 5881 5882 5882 5883 5884 5885 5885 5886 5886 5887 5888 5888 5889 5890 5891 5892 5893 5895 5896 5897 5898 5899 5900 5901 5902 5903 5903 5904 5905 5905 5905 5906 5906 5906 5906 5906 5906 5906 5906 5906 5906 5907 5907 5907 5907 5907 5908 5908 5909 5909 5910 5910 5910 5911 5911 5912 5911 5911 5911 5910 5910 5910 5909 5908 5907 5907 5907 5906 5905 5906
5856 5857 5859 5860 5862 5864 5865 5866 5868 5869 5870 5871 5871 5873 5874 5875 5876 5876 5877 5878 5879 5880 5881 5882 5882 5883 5884 5884 5884 5885 5886 5887 5889 5890 5891 5892 5894 5895 5896 5897 5897 5898 5899 5899 5900 5901 5901 5901 5901 5901 5901 5901 5901 5901 5901 5901 5902 5902 5902 5902 5902 5902 5902 5903 5903 5904 5904 5904 5905 5906 5906 5906 5906 5905 5904 5905 5905 5904 5902 5902 5902 5901 5901 5900 5901
5849 5851 5852 5854 5855 5857 5859 5860 5861 5862 5863 5864 5866 5867 5868 5869 5869 5870 5871 5872 5873 5874 5875 5876 5877 5878 5879 5879 5879 5880 5881 5882 5883 5884 5885 5886 5887 5888 5889 5891 5892 5892 5893 5894 5894 5895 5895 5895 5896 5896 5896 5897 5897 5897 5896 5896 5896 5897 5897 5897 5897 5897 5897 5897 5897 5898 5898 5898 5899 5899 5900 5900 5900 5899 5899 5899 5899 5898 5897 5897 5896 5896 5895 5895 5895
5843 5844 5846 5847 5849 5850 5852 5853 5855 5856 5857 5858 5859 5860 5861 5862 5863 5864 5865 5866 5867 5867 5868 5870 5871 5872 5872 5873 5874 5874 5875 5876 5876 5877 5879 5880 5881 5881 5882 5883 5885 5885 5886 5887 5887 5888 5889 5889 5890 5890 5891 5891 5891 5892 5892 5892 5892 5892 5892 5891 5891 5892 5891 5891 5891 5892 5892 5892 5893 5893 5893 5894 5894 5894 5893 5894 5894 5893 5892 5891 5891 5890 5890 5889 5890
5836 5837 5839 5840 5842 5843 5844 5846 5847 5848 5850 5851 5852 5853 5854 5855 5856 5857 5858 5859 5860 5861 5862 5863 5864 5865 5865 5866 5867 5868 5869 5869 5870 5870 5871 5873 5874 5875 5875 5876 5877 5878 5879 5880 5880 5881 5882 5882 5883 5884 5884 5885 5885 5886 5886 5886 5886 5886 5887 5886 5886 5886 5886 5886 5886 5886 5886 5886 5887 5887 5887 5887 5887 5888 5888 5888 5888 5887 5886 5885 5885 5884 5884 5883 5884
5828 5830 5832 5833 5835 5836 5837 5838 5839 5841 5842 5843 5845 5846 5847 5848 5849 5850 5851 5852 5853 5855 5856 5857 5858 5859 5859 5859 5861 5861 5862 5863 5863 5864 5864 5865 5866 5867 5868 5869 5870 5871 5871 5872 5872 5873 5874 5875 5875 5876 5877 5877 5878 5879 5879 5879 5880 5880 5881 5881 5880 5880 5880 5880 5880 5880 5880 5880 5881 5881 5880 5881 5881 5881 5881 5881 5881 5881 5881 5880 5879 5878 5878 5878 5878
5821 5823 5825 5826 5827 5828 5829 5830 5831 5833 5834 5836 5837 5838 5839 5840 5841 5842 5843 5844 5845 5847 5848 5849 5851 5852 5852 5853 5854 5854 5855 5855 5856 5857 5857 5857 5858 5859 5860 5861 5862 5863 5864 5864 5865 5865 5866 5866 5867 5868 5869 5869 5870 5871 5871 5872 5872 5873 5873 5874 5874 5874 5873 5873 5873 5874 5874 5874 5874 5874 5874 5874 5874 5874 5874 5874 5874 5875 5875 5874 5874 5872 5872 5872 5872
5813 5815 5817 5818 5819 5820 5822 5823 5824 5825 5826 5828 5829 5830 5831 5832 5833 5834 5835 5835 5836 5838 5839 5841 5842 5843 5845 5846 5847 5847 5847 5847 5848 5848 5849 5850 5851 5851 5852 5853 5854 5855 5856 5856 5857 5857 5857 5858 5858 5859 5860 5861 5861 5862 5863 5863 5864 5865 5865 5866 5866 5866 5866 5866 5866 5866 5866 5866 5866 5866 5867 5867 5866 5866 5866 5866 5867 5867 5868 5867 5867 5866 5865 5865 5866
5805 5807 5808 5810 5811 5812 5813 5815 5816 5817 5819 5820 5821 5822 5823 5824 5825 5826 5827 5827 5828 5828 5829 5831 5833 5834 5836 5837 5838 5839 5839 5839 5840 5840 5841 5842 5842 5843 5844 5844 5845 5846 5847 5848 5848 5849 5849 5850 5850 5850 5851 5852 5853 5853 5854 5854 5855 5856 5857 5857 5858 5858 5858 5858 5858 5858 5858 5858 5858 5858 5858 5858 5858 5858 5859 5859 5859 5860 5860 5860 5859 5859 5858 5858 5858
5797 5799 5800 5802 5803 5804 5805 5807 5808 5809 5811 5812 5814 5815 5816 5816 5817 5818 5819 5820 5820 5821 5821 5821 5823 5824 5826 5828 5829 5830 5831 5831 5832 5832 5833 5833 5834 5835 5835 5836 5836 5837 5838 5838 5839 5840 5840 5841 5841 5842 5842 5843 5843 5844 5845 5845 5846 5846 5847 5848 5849 5849 5850 5850 5850 5850 5850 5850 5850 5850 5850 5850 5850 5850 5850 5851 5851 5852 5852 5852 5852 5852 5851 5851 5851
5790 5791 5793 5794 5795 5796 5797 5798 5800 5801 5802 5804 5805 5806 5807 5808 5809 5810 5811 5812 5813 5813 5814 5813 5813 5814 5816 5818 5820 5821 5821 5822 5822 5823 5824 5825 5826 5826 5827 5827 5828 5828 5829 5829 5829 5830 5830 5831 5832 5832 5833 5833 5834 5834 5835 5835 5836 5837 5837 5838 5839 5840 5840 5840 5840 5841 5841 5841 5841 5841 5841 5842 5842 5841 5842 5843 5843 5843 5844 5844 5844 5844 5844 5843 5843
5782 5783 5785 5786 5787 5788 5789 5790 5791 5793 5794 5796 5797 5798 5799 5800 5801 5802 5803 5804 5805 5805 5806 5806 5806 5806 5806 5807 5809 5811 5812 5813 5813 5814 5815 5816 5817 5817 5818 5818 5819 5820 5820 5820 5820 5821 5821 5821 5821 5822 5822 5823 5823 5824 5825 5825 5826 5826 5827 5828 5829 5829 5830 5830 5831 5831 5831 5832 5832 5832 5832 5832 5833 5833 5833 5833 5834 5835 5835 5835 5835 5835 5835 5835 5835
5774 5775 5777 5778 5779 5780 5781 5782 5783 5785 5786 5787 5789 5790 5791 5792 5793 5794 5795 5796 5796 5797 5797 5797 5798 5798 5799 5799 5799 5800 5801 5802 5803 5805 5805 5806 5807 5808 5809 5809 5810 5810 5811 5811 5811 5811 5812 5812 5812 5812 5812 5812 5812 5813 5813 5814 5815 5815 5816 5817 5818 5818 5819 5819 5820 5820 5821 5821 5822 5823 5823 5823 5823 5823 5823 5824 5825 5825 5826 5826 5826 5826 5826 5827 5826
5767 5768 5769 5771 5771 5772 5773 5774 5775 5776 5778 5779 5780 5781 5782 5783 5784 5785 5786 5787 5787 5788 5788 5789 5789 5790 5790 5791 5791 5792 5792 5792 5793 5794 5795 5796 5797 5798 5799 5799 5800 5800 5801 5801 5802 5802 5802 5802 5802 5802 5801 5801 5802 5802 5802 5803 5804 5804 5805 5806 5807 5807 5808 5808 5809 5809 5810 5810 5811 5812 5813 5813 5813 5814 5814 5814 5815 5815 5816 5816 5816 5816 5817 5817 5817
5761 5762 5762 5763 5764 5765 5766 5767 5768 5769 5770 5772 5773 5773 5774 5775 5776 5776 5777 5778 5778 5779 5779 5780 5780 5781 5782 5782 5783 5783 5784 5784 5784 5784 5784 5785 5786 5787 5788 5789 5789 5790 5790 5791 5791 5792 5792 5792 5792 5792 5791 5791 5791 5792 5792 5792 5792 5793 5794 5794 5795 5796 5797 5797 5797 5797 5798 5799 5800 5801 5801 5802 5803 5803 5804 5804 5804 5805 5806 5806 5807 5807 5807 5807 5807
5754 5755 5756 5756 5758 5759 5760 5761 5762 5763 5764 5764 5765 5765 5766 5767 5767 5768 5768 5769 5769 5770 5770 5771 5772 5772 5773 5773 5774 5775 5775 5775 5775 5775 5775 5776 5776 5777 5777 5778 5779 5779 5780 5780 5780 5781 5781 5781 5781 5781 5781 5781 5781 5781 5781 5781 5781 5781 5782 5782 5783 5784 5785 5785 5785 5786 5786 5787 5788 5789 5790 5790 5791 5792 5793 5793 5794 5794 5795 5795 5796 5796 5797 5797 5798
5747 5748 5748 5749 5750 5752 5753 5754 5755 5756 5757 5757 5758 5758 5759 5759 5759 5759 5760 5761 5761 5761 5762 5763 5763 5764 5764 5765 5766 5766 5766 5766 5766 5767 5767 5767 5767 5767 5767 5768 5768 5769 5769 5770 5770 5770 5771 5771 5771 5770 5770 5770 5770 5770 5770 5769 5769 5770 5770 5771 5771 5772 5772 5773 5773 5774 5774 5775 5776 5777 5778 5779 5780 5780 5781 5782 5782 5783 5784 5785 5785 5785 5785 5786 5787
5739 5740 5741 5742 5743 5744 5745 5746 5747 5748 5749 5750 5751 5751 5751 5751 5751 5752 5752 5752 5752 5753 5753 5754 5755 5755 5756 5756 5757 5757 5757 5757 5757 5757 5757 5757 5758 5758 5758 5758 5758 5759 5759 5759 5759 5759 5760 5760 5760 5760 5760 5759 5759 5759 5758 5758 5757 5758 5758 5758 5759 5759 5760 5760 5760 5761 5762 5763 5764 5765 5766 5767 5768 5768 5769 5769 5770 5771 5773 5773 5774 5774 5774 5775 5776
5731 5732 5733 5734 5735 5736 5737 5738 5739 5740 5741 5742 5742 5742 5742 5743 5744 5744 5744 5744 5744 5745 5745 5746 5747 5746 5747 5747 5748 5748 5748 5748 5748 5748 5748 5748 5748 5749 5749 5749 5749 5749 5749 5749 5749 5749 5749 5749 5749 5749 5749 5749 5748 5748 5747 5746 5746 5746 5745 5745 5746 5746 5746 5747 5747 5747 5748 5749 5751 5752 5754 5755 5756 5756 5756 5757 5758 5759 5760 5761 5762 5763 5763 5764 5764
5723 5724 5725 5726 5727 5728 5728 5729 5730 5731 5732 5733 5733 5733 5734 5735 5735 5736 5736 5736 5736 5736 5737 5737 5737 5737 5738 5738 5739 5739 5739 5739 5739 5739 5739 5739 5739 5739 5739 5739 5739 5739 5739 5739 5738 5738 5738 5738 5737 5737 5737 5737 5737 5737 5736 5735 5735 5734 5733 5733 5733 5733 5733 5733 5733 5734 5735 5735 5736 5738 5740 5742 5743 5744 5744 5744 5745 5746 5747 5749 5749 5750 5752 5752 5752
5715 5716 5717 5718 5718 5719 5720 5720 5721 5722 5723 5724 5724 5725 5726 5726 5727 5727 5727 5727 5727 5727 5728 5729 5729 5729 5729 5730 5730 5729 5730 5730 5729 5729 5729 5729 5729 5729 5729 5729 5729 5729 5728 5728 5727 5727 5726 5726 5725 5725 5725 5724 5724 5724 5724 5724 5723 5722 5722 5721 5720 5720 5719 5719 5719 5720 5720 5721 5722 5723 5725 5727 5729 5730 5730 5731 5731 5732 5733 5735 5736 5737 5739 5740 5740
5705 5706 5707 5709 5710 5710 5710 5711 5712 5713 5714 5715 5715 5716 5717 5717 5718 5718 5718 5718 5718 5719 5719 5720 5720 5720 5721 5721 5721 5721 5721 5720 5720 5719 5719 5719 5719 5719 5719 5718 5718 5718 5717 5716 5715 5715 5714 5714 5713 5712 5712 5711 5711 5710 5710 5710 5709 5709 5709 5709 5708 5707 5706 5705 5705 5705 5705 5706 5707 5709 5710 5712 5714 5715 5716 5717 5717 5718 5719 5721 5722 5724 5725 5726 5727
5696 5697 5698 5699 5700 5701 5701 5702 5703 5704 5704 5705 5706 5707 5707 5708 5708 5709 5709 5709 5710 5710 5710 5711 5711 5712 5712 5712 5712 5712 5712 5711 5711 5710 5710 5710 5710 5709 5709 5708 5708 5707 5706 5705 5704 5704 5703 5702 5701 5700 5699 5699 5698 5697 5696 5696 5695 5694 5694 5694 5693 5693 5693 5692 5692 5691 5690 5691 5693 5694 5696 5697 5699 5700 5701 5702 5702 5703 5705 5706 5707 5709 5711 5712 5714
5687 5688 5689 5690 5691 5692 5692 5693 5694 5694 5695 5696 5697 5697 5698 5699 5699 5700 5700 5700 5701 5701 5701 5702 5702 5703 5703 5703 5703 5703 5703 5702 5702 5701 5701 5701 5701 5700 5699 5698 5698 5697 5696 5695 5694 5693 5692 5691 5690 5689 5688 5687 5686 5685 5684 5683 5682 5681 5680 5679 5678 5678 5677 5677 5677 5676 5675 5675 5678 5680 5682 5683 5684 5684 5685 5686 5687 5688 5689 5690 5692 5694 5696 5697 5699
5679 5680 5681 5682 5682 5683 5684 5684 5685 5686 5687 5687 5688 5689 5689 5690 5690 5690 5691 5691 5692 5692 5692 5693 5693 5693 5694 5694 5694 5694 5693 5693 5693 5692 5692 5692 5691 5690 5690 5689 5688 5687 5686 5685 5684 5683 5682 5680 5679 5677 5676 5675 5673 5672 5671 5669 5668 5667 5666 5665 5664 5663 5663 5662 5662 5661 5659 5660 5662 5665 5667 5668 5668 5669 5670 5670 5671 5672 5673 5675 5676 5678 5680 5682 5684